2020-102C

Last updated on Fri Jan 22 2021 00:02:02 GMT+0000 (Coordinated Universal Time)

1 47298U 20102C 21021.74519253 .00001495 00000-0 65475-4 0 9997 2 47298 97.3925 121.6844 0002076 124.2266 29.8118 15.23569596 4645
UTC large
Height (km)
Speed (km/s)
/
Latitude / Longitude
Inclination (degrees)
Orbital Period (minutes)
Azimuth
Elevation
Range (km)
Doppler Factor

Next 0 passes for location: London (51.5072 / 0.1276)

Sorry there are no passes over London.